Flag for Australia Weather past 2 weeks in Toowoomba, Queensland, Australia

Now
43 °F

Quite cool.


Feels Like: 40 °F
Forecast: 47 / 67 °F
Wind: 5 mph from West

Location: Oakey Aerodrome

Current Time: Apr 27, 2015 at 3:28:29 AM

Latest Report: Apr 27, 2015 at 1:00 AM


Visibility: N/A

Pressure: 30.02 "Hg

Humidity: 83%

Dew point: 38 °F

Location of ToowoombaLocation

Historic Weather in Toowoomba — Graph

°F

Toowoomba temperature yesterday

Maximum temperature yesterday: 65 °F (at 1:00 PM)
Minimum temperature yesterday: 46 °F (at 9:00 PM)
Average temperature yesterday: 56 °F

Past Weeks' High & Low Weather Summary

 TemperatureHumidityPressure
High82 °F (Apr 17, 3:00 PM)98% (Apr 12, 7:00 AM)30.30 "Hg (Apr 12, 7:00 AM)
Low40 °F (Apr 23, 6:00 AM)24% (Apr 25, 3:00 PM)29.76 "Hg (Apr 25, 3:00 PM)
Average62 °F70%30.04 "Hg
* Reported Apr 12 1:00 AM — Apr 27 1:00 AM, Toowoomba, Weather by CustomWeather, © 2015

Note: Actual official high and low records may vary slightly from our data, if they occured in-between our weather recording intervals... More about our weather records

Advertising

Toowoomba weather history for previous 24 hours

 ConditionsComfort  
Time TempWeatherWind HumidityBarometerVisibility
1:00 AM
Mon, Apr 27
43 °FQuite cool.5 mph83%30.02 "HgN/A
12:00 AM44 °FQuite cool.7 mph80%30.04 "HgN/A
10:00 PM
Sun, Apr 26
46 °FCool.8 mph73%30.06 "HgN/A
9:00 PM46 °FCool.1 mph73%30.05 "HgN/A
7:00 PM56 °FRefreshingly cool.13 mph54%30.00 "HgN/A
6:00 PM58 °FRefreshingly cool.14 mph50%29.97 "HgN/A
4:00 PM63 °FMild.22 mph41%29.93 "HgN/A
3:00 PM64 °FMild.24 mph39%29.92 "HgN/A
1:00 PM65 °FMild.24 mph38%29.91 "HgN/A
12:00 PM64 °FMild.26 mph38%29.93 "HgN/A
10:00 AM62 °FRefreshingly cool.24 mph39%29.95 "HgN/A
9:00 AM59 °FRefreshingly cool.22 mph47%29.96 "HgN/A
7:00 AM52 °FCool.10 mph57%29.93 "HgN/A
6:00 AM48 °FCool.10 mph64%29.91 "HgN/A
4:00 AM50 °FCool.9 mph59%29.89 "HgN/A
3:00 AM50 °FCool.9 mph63%29.87 "HgN/A
Weather by CustomWeather, © 2015

See weather overviewHow to use our weather pages